Location: Heidgraben
(53.7081°N, 9.6576°E)
Time: 04:32:56
(UTC+00:00)

Cosmos 1825 - Pass Details

Date: 05 July 2020
Orbit: 502 x 508 km, 82.5° (Epoch: 06 August)

Event Time Altitude Azimuth Distance (km) Brightness Sun altitude
Exits shadow 21:58:01 17° 150° (SSE) 1,346 3.7 -11.3°
Maximum altitude 22:00:25 35° 92° (E) 845 3.1 -11.4°
Drops below altitude 10° 22:03:54 10° 27° (NNE) 1,741 5.5 -11.6°
Sets 22:06:09 0° 18° (NNE) 2,632 6.7 -11.7°
